Location: Brno
(49.2000°N, 16.6330°E)
Time: 07:06:06
(UTC+02:00)

ISS - Visible Passes

Search period start: 18 May 2021 00:00
Search period end: 28 May 2021 00:00
Orbit: 417 x 422 km, 51.6° (Epoch: 18 May)

Date Brightness Start Highest point End Pass type
(mag) Time Alt. Az. Time Alt. Az. Time Alt. Az.
18 May -3.3 01:20:07 10° WNW 01:22:53 56° WNW 01:22:53 56° WNW visible
18 May -3.7 21:18:49 10° SW 21:22:06 55° SSE 21:25:25 10° ENE visible
18 May -3.2 22:55:37 10° W 22:58:57 58° N 23:02:18 10° ENE visible
19 May -3.4 00:32:39 10° WNW 00:36:01 66° NNE 00:36:27 57° ENE visible
19 May -3.4 22:08:04 10° W 22:11:26 67° NNW 22:14:49 10° ENE visible
19 May -3.2 23:45:09 10° WNW 23:48:30 58° N 23:50:16 24° E visible
20 May -1.8 01:22:01 10° WNW 01:23:12 20° W 01:23:12 20° W visible
20 May -3.6 21:20:34 10° WSW 21:23:57 82° NNW 21:27:20 10° ENE visible
20 May -3.0 22:57:38 10° WNW 23:00:58 54° N 23:04:11 11° E visible
21 May -3.2 00:34:32 10° WNW 00:37:06 48° W 00:37:06 48° W visible
21 May -3.0 22:10:06 10° W 22:13:25 54° N 22:16:45 10° ENE visible
21 May -3.8 23:47:03 10° WNW 23:50:26 81° NNE 23:51:03 56° E visible
22 May -3.1 21:22:33 10° W 21:25:52 58° N 21:29:13 10° ENE visible
22 May -3.4 22:59:34 10° WNW 23:02:56 66° NNE 23:05:02 21° E visible
23 May -1.9 00:36:29 10° WNW 00:37:58 22° W 00:37:58 22° W visible
23 May -3.2 22:12:04 10° WNW 22:15:24 58° N 22:18:44 10° E visible
23 May -3.5 23:48:56 10° WNW 23:51:59 54° SW 23:51:59 54° SW visible
24 May -3.0 21:24:33 10° WNW 21:27:51 54° N 21:31:11 10° E visible
24 May -3.9 23:01:26 10° WNW 23:04:48 78° SSW 23:06:01 37° ESE visible
25 May -1.0 00:38:49 10° W 00:38:57 11° W 00:38:57 11° W visible
25 May -3.7 22:13:56 10° WNW 22:17:19 81° NNE 22:20:04 15° ESE visible
25 May -2.2 23:51:00 10° W 23:53:00 23° WSW 23:53:00 23° WSW visible
26 May -3.4 21:26:26 10° WNW 21:29:48 66° NNE 21:33:10 10° E visible
26 May -3.1 23:03:21 10° WNW 23:06:31 39° SSW 23:07:05 36° S visible
27 May -3.6 22:15:48 10° WNW 22:19:07 56° SSW 22:21:12 20° SE visible
27 May -1.1 23:53:56 10° WSW 23:54:09 11° WSW 23:54:09 11° WSW visible
